This demonstration page uses our WeatherBlox Daily Observations layout. Learn more.

Left ArrowRight Arrow

41.12389, -100.76542

Hourly Observations for September 21, 2020

Temp ( °F °C ) Dew Point ( °F °C ) Humidity (%) Winds ( mph kmh ) Pressure ( in mb ) Visibility ( mi km ) Precip ( " mm )
12:53 am 00:53 Clear 66 18.9 52 11.1 61 61 SE 7 11 30.01 1016 10 16 0.00 0.00
1:53 am 01:53 Clear 65 18.3 52 11.1 63 63 SE 7 11 30.01 1016 10 16 0.00 0.00
2:53 am 02:53 Clear 61 16.1 52 11.1 72 72 ENE 3 6 30.03 1017 10 16 0.00 0.00
3:53 am 03:53 Clear 61 16.1 52 11.1 72 72 SE 6 9 30.00 1016 10 16 0.00 0.00
4:53 am 04:53 Clear 57 13.9 51 10.6 81 81 E 3 6 30.01 1016 10 16 0.00 0.00
5:53 am 05:53 Mostly Clear with Light Rain 61 16.1 52 11.1 72 72 SE 6 9 30.01 1016 10 16 0.00 0.00
6:53 am 06:53 Clear 58 14.4 51 10.6 78 78 SE 7 11 30.02 1017 10 16 0.00 0.00
7:51 am 07:51 Partly Cloudy with Light Rain 61 16 54 12 77 77 W 16 26 30.03 1017 10 16 0.02 0.51
7:53 am 07:53 Partly Cloudy with Light Rain 60 15.6 53 11.7 78 78 W 9 15 30.06 1018 10 16 0.02 0.51
8:53 am 08:53 Mostly Cloudy with Light Rain 59 15 54 12.2 83 83 E 10 17 30.07 1018 10 16 0.03 0.76
9:53 am 09:53 Partly Cloudy 62 16.7 54 12.2 75 75 SSE 17 28 30.07 1018 10 16 0.01 0.25
10:53 am 10:53 Mostly Sunny 67 19.4 55 12.8 66 66 VRB 3 6 30.06 1018 10 16 0.00 0.00
11:22 am 11:22 Partly Cloudy 68 20 55 12.8 63 63 SSE 10 17 30.00 1016 10 16 0.00 0.00
11:53 am 11:53 Partly Cloudy 70 21.1 55 12.8 59 59 SSE 9 15 30.05 1018 10 16 0.00 0.00
12:53 pm 12:53 Sunny 75 23.9 56 13.3 52 52 SSW 3 6 30.04 1017 10 16 0.00 0.00
1:53 pm 13:53 Sunny 80 26.7 55 12.8 42 42 SE 10 17 30.01 1016 10 16 0.00 0.00
2:53 pm 14:53 Sunny 85 29.4 54 12.2 35 35 S 10 17 29.98 1015 10 16 0.00 0.00
3:53 pm 15:53 Sunny 84 28.9 52 11.1 33 33 S 13 20 29.98 1015 10 16 0.00 0.00
4:53 pm 16:53 Sunny 85 29.4 53 11.7 33 33 SSW 8 13 29.97 1015 10 16 0.00 0.00
5:53 pm 17:53 Sunny 86 30 54 12.2 33 33 Calm 29.95 1014 10 16 0.00 0.00
6:53 pm 18:53 Sunny 83 28.3 56 13.3 40 40 NNE 3 6 29.96 1014 10 16 0.00 0.00
7:53 pm 19:53 Clear 74 23.3 56 13.3 54 54 Calm 29.98 1015 10 16 0.00 0.00
8:53 pm 20:53 Clear 72 22.2 51 10.6 48 48 SE 6 9 29.99 1016 10 16 0.00 0.00
9:53 pm 21:53 Clear 72 22.2 50 10 46 46 SE 8 13 30.01 1016 10 16 0.00 0.00
10:53 pm 22:53 Clear 71 21.7 49 9.4 46 46 SE 6 9 30.02 1017 10 16 0.00 0.00
11:53 pm 23:53 Clear 68 20 49 9.4 51 51 SE 6 9 30.02 1017 10 16 0.00 0.00

Powered by AerisWeather